Radiation Dose at Monitoring Post of Fukushima Daini Nuclear Power Station
Date,Time,MP-1(microSv/h),MP-2(microSv/h),MP-3(microSv/h),MP-4(microSv/h),MP-5(microSv/h),MP-6(microSv/h),MP-7(microSv/h),Wind Direction,Wind Velocity(m/s),Rain
2021/09/08,00:00,0.154,0.144,0.225,0.218,0.227,0.120,0.077,-,CALM,No
2021/09/08,00:10,0.155,0.142,0.223,0.217,0.225,0.121,0.077,-,CALM,No
2021/09/08,00:20,0.155,0.142,0.225,0.218,0.226,0.120,0.077,-,CALM,No
2021/09/08,00:30,0.156,0.142,0.223,0.218,0.224,0.120,0.077,-,CALM,No
2021/09/08,00:40,0.156,0.143,0.225,0.218,0.226,0.120,0.077,-,CALM,No
2021/09/08,00:50,0.155,0.142,0.224,0.217,0.224,0.120,0.077,-,CALM,No
2021/09/08,01:00,0.154,0.142,0.224,0.218,0.226,0.120,0.077,-,CALM,No
2021/09/08,01:10,0.157,0.143,0.225,0.217,0.225,0.121,0.077,south-southwest,0.7,No
2021/09/08,01:20,0.155,0.142,0.224,0.217,0.226,0.121,0.077,west-southwest,1.2,No
2021/09/08,01:30,0.156,0.142,0.224,0.217,0.226,0.121,0.077,west-southwest,1.8,No
2021/09/08,01:40,0.155,0.142,0.223,0.217,0.226,0.120,0.077,southwest,1.8,No
2021/09/08,01:50,0.156,0.142,0.225,0.217,0.226,0.120,0.077,west-southwest,1.4,No
2021/09/08,02:00,0.156,0.142,0.224,0.218,0.226,0.120,0.077,southwest,0.9,No
2021/09/08,02:10,0.156,0.142,0.224,0.219,0.226,0.120,0.077,south-southwest,0.7,No
2021/09/08,02:20,0.155,0.142,0.223,0.218,0.227,0.120,0.076,south-southwest,1.1,No
2021/09/08,02:30,0.156,0.142,0.225,0.218,0.225,0.120,0.078,south,0.6,No
2021/09/08,02:40,0.155,0.142,0.223,0.216,0.227,0.120,0.077,south,0.7,No
2021/09/08,02:50,0.156,0.142,0.223,0.219,0.226,0.121,0.078,-,CALM,No
2021/09/08,03:00,0.155,0.143,0.225,0.217,0.227,0.120,0.076,-,CALM,No
2021/09/08,03:10,0.156,0.142,0.223,0.219,0.226,0.119,0.077,southwest,0.7,No
2021/09/08,03:20,0.155,0.143,0.224,0.217,0.227,0.120,0.076,south-southwest,0.7,No
2021/09/08,03:30,0.156,0.143,0.224,0.218,0.225,0.121,0.078,south-southwest,0.8,No
2021/09/08,03:40,0.155,0.142,0.224,0.217,0.227,0.120,0.076,-,CALM,No
2021/09/08,03:50,0.156,0.142,0.222,0.218,0.224,0.121,0.077,-,CALM,No
2021/09/08,04:00,0.155,0.143,0.225,0.218,0.228,0.121,0.077,-,CALM,No
2021/09/08,04:10,0.156,0.142,0.222,0.218,0.225,0.120,0.077,-,CALM,No
2021/09/08,04:20,0.154,0.143,0.225,0.219,0.227,0.120,0.077,east-southeast,0.6,No
2021/09/08,04:30,0.156,0.143,0.225,0.217,0.224,0.121,0.077,-,CALM,No
2021/09/08,04:40,0.155,0.141,0.225,0.218,0.228,0.120,0.077,-,CALM,No
2021/09/08,04:50,0.156,0.143,0.225,0.218,0.225,0.120,0.076,east-southeast,0.6,No
2021/09/08,05:00,0.156,0.142,0.225,0.218,0.228,0.120,0.078,east,0.6,No
2021/09/08,05:10,0.156,0.143,0.225,0.218,0.225,0.120,0.078,-,CALM,No
2021/09/08,05:20,0.156,0.143,0.224,0.218,0.226,0.121,0.077,-,CALM,No
2021/09/08,05:30,0.156,0.143,0.224,0.219,0.225,0.121,0.077,-,CALM,No
2021/09/08,05:40,0.156,0.142,0.225,0.217,0.226,0.120,0.078,-,CALM,No
2021/09/08,05:50,0.156,0.142,0.224,0.218,0.226,0.120,0.076,south-southwest,0.6,No
2021/09/08,06:00,0.156,0.142,0.224,0.216,0.226,0.120,0.077,-,CALM,No
2021/09/08,06:10,0.155,0.142,0.226,0.218,0.226,0.120,0.076,-,CALM,No
2021/09/08,06:20,0.155,0.143,0.225,0.218,0.225,0.121,0.077,-,CALM,No
2021/09/08,06:30,0.156,0.142,0.223,0.218,0.225,0.121,0.077,-,CALM,No
2021/09/08,06:40,0.155,0.143,0.225,0.217,0.226,0.120,0.077,south-southeast,0.7,No
2021/09/08,06:50,0.157,0.142,0.223,0.217,0.225,0.120,0.077,south,0.7,No
2021/09/08,07:00,0.156,0.142,0.225,0.216,0.226,0.120,0.077,-,CALM,No
2021/09/08,07:10,0.156,0.141,0.223,0.218,0.224,0.121,0.077,-,CALM,No
2021/09/08,07:20,0.156,0.142,0.225,0.217,0.226,0.120,0.077,-,CALM,No
2021/09/08,07:30,0.157,0.142,0.224,0.217,0.226,0.120,0.076,south,0.6,No
2021/09/08,07:40,0.155,0.143,0.225,0.217,0.225,0.121,0.077,south-southeast,0.6,No
2021/09/08,07:50,0.156,0.142,0.224,0.215,0.226,0.120,0.078,-,CALM,No
2021/09/08,08:00,0.156,0.142,0.222,0.218,0.225,0.121,0.077,-,CALM,No
2021/09/08,08:10,0.154,0.142,0.225,0.216,0.226,0.120,0.077,-,CALM,No
2021/09/08,08:20,0.157,0.141,0.223,0.217,0.227,0.121,0.077,south,0.6,No
2021/09/08,08:30,0.155,0.143,0.224,0.218,0.224,0.120,0.077,south-southwest,0.9,No
2021/09/08,08:40,0.156,0.143,0.225,0.216,0.226,0.121,0.077,southwest,0.7,No
2021/09/08,08:50,0.156,0.143,0.222,0.219,0.227,0.121,0.077,-,CALM,No
2021/09/08,09:00,0.155,0.142,0.226,0.218,0.224,0.120,0.076,southwest,0.9,No
2021/09/08,09:10,0.157,0.142,0.224,0.216,0.226,0.121,0.078,southwest,0.9,Yes
2021/09/08,09:20,0.155,0.143,0.224,0.219,0.228,0.121,0.077,south-southwest,1.2,Yes
2021/09/08,09:30,0.155,0.143,0.225,0.217,0.225,0.119,0.077,south-southwest,1.5,No
2021/09/08,09:40,0.155,0.140,0.225,0.216,0.223,0.120,0.077,south-southwest,1.9,No
2021/09/08,09:50,0.155,0.142,0.223,0.217,0.226,0.121,0.077,south,1.9,No
2021/09/08,10:00,0.154,0.143,0.222,0.219,0.227,0.120,0.077,south-southeast,1.6,No
2021/09/08,10:10,0.155,0.142,0.226,0.217,0.225,0.120,0.077,south,1.7,No
2021/09/08,10:20,0.156,0.142,0.224,0.216,0.223,0.120,0.077,south,2.1,Yes
2021/09/08,10:30,0.154,0.143,0.223,0.218,0.227,0.120,0.077,south,2.8,Yes
2021/09/08,10:40,0.154,0.141,0.225,0.218,0.228,0.120,0.076,south,2.2,Yes
2021/09/08,10:50,0.157,0.140,0.223,0.217,0.225,0.122,0.077,south,2.3,Yes
2021/09/08,11:00,0.156,0.144,0.223,0.219,0.226,0.121,0.078,south,2.1,Yes
2021/09/08,11:10,0.155,0.144,0.228,0.219,0.229,0.120,0.078,south,2.6,Yes
2021/09/08,11:20,0.157,0.143,0.228,0.218,0.227,0.123,0.078,south,2.4,Yes
2021/09/08,11:30,0.159,0.146,0.226,0.222,0.229,0.122,0.080,south,3.0,Yes
2021/09/08,11:40,0.158,0.145,0.229,0.220,0.229,0.124,0.080,south,3.2,Yes
2021/09/08,11:50,0.159,0.146,0.227,0.220,0.227,0.124,0.080,south,3.7,Yes
2021/09/08,12:00,0.159,0.147,0.230,0.222,0.232,0.123,0.081,south,3.8,Yes
2021/09/08,12:10,0.160,0.146,0.229,0.221,0.230,0.125,0.081,south,3.6,Yes
2021/09/08,12:20,0.160,0.147,0.227,0.223,0.231,0.125,0.082,south,3.8,Yes
2021/09/08,12:30,0.159,0.147,0.229,0.221,0.231,0.124,0.082,south-southwest,4.4,Yes
2021/09/08,12:40,0.161,0.147,0.227,0.221,0.227,0.126,0.081,south,3.5,Yes
2021/09/08,12:50,0.159,0.148,0.229,0.224,0.232,0.126,0.082,south,4.1,Yes
2021/09/08,13:00,0.160,0.148,0.229,0.223,0.231,0.126,0.083,south,3.6,Yes
2021/09/08,13:10,0.163,0.150,0.228,0.223,0.229,0.126,0.084,south,3.1,Yes
2021/09/08,13:20,0.160,0.147,0.230,0.222,0.232,0.126,0.082,south,3.7,Yes
2021/09/08,13:30,0.159,0.148,0.226,0.220,0.229,0.125,0.082,south,3.1,Yes
2021/09/08,13:40,0.159,0.148,0.228,0.222,0.228,0.125,0.081,south,3.8,Yes
2021/09/08,13:50,0.159,0.146,0.228,0.221,0.230,0.124,0.082,south,3.3,Yes
2021/09/08,14:00,0.159,0.147,0.226,0.221,0.229,0.125,0.083,south,4.1,Yes
2021/09/08,14:10,0.160,0.149,0.228,0.221,0.228,0.126,0.083,south,3.5,Yes
2021/09/08,14:20,0.159,0.147,0.227,0.220,0.231,0.126,0.083,south,3.3,Yes
2021/09/08,14:30,0.160,0.147,0.230,0.222,0.228,0.126,0.082,south,3.6,Yes
2021/09/08,14:40,0.160,0.147,0.228,0.222,0.232,0.126,0.082,south-southwest,3.2,Yes
2021/09/08,14:50,0.160,0.148,0.227,0.221,0.230,0.126,0.082,south-southwest,4.0,Yes
2021/09/08,15:00,0.161,0.147,0.230,0.221,0.229,0.127,0.083,south-southwest,4.5,Yes
2021/09/08,15:10,0.160,0.148,0.228,0.221,0.232,0.126,0.082,south,4.5,Yes
2021/09/08,15:20,0.161,0.147,0.228,0.223,0.230,0.126,0.083,south,5.2,Yes
2021/09/08,15:30,0.159,0.145,0.228,0.221,0.230,0.125,0.082,south,5.3,Yes
2021/09/08,15:40,0.158,0.147,0.227,0.220,0.229,0.124,0.082,south,5.3,Yes
2021/09/08,15:50,0.159,0.145,0.228,0.221,0.227,0.124,0.081,south,5.1,Yes
2021/09/08,16:00,0.158,0.147,0.225,0.218,0.230,0.124,0.081,south,4.8,Yes
2021/09/08,16:10,0.159,0.145,0.227,0.220,0.227,0.123,0.081,south,5.0,Yes
2021/09/08,16:20,0.159,0.145,0.225,0.217,0.229,0.123,0.080,south,4.6,Yes
2021/09/08,16:30,0.158,0.144,0.225,0.219,0.227,0.122,0.079,south,5.0,Yes
2021/09/08,16:40,0.157,0.143,0.223,0.218,0.225,0.121,0.078,south-southwest,5.1,No
2021/09/08,16:50,0.155,0.144,0.223,0.217,0.227,0.122,0.078,south,5.3,No
2021/09/08,17:00,0.156,0.143,0.223,0.216,0.224,0.120,0.078,south-southwest,5.8,Yes
2021/09/08,17:10,0.155,0.142,0.221,0.215,0.225,0.121,0.077,south-southwest,5.7,Yes
2021/09/08,17:20,0.156,0.144,0.224,0.218,0.225,0.122,0.077,south-southwest,6.3,Yes
2021/09/08,17:30,0.157,0.143,0.223,0.216,0.226,0.121,0.078,south,5.0,Yes
2021/09/08,17:40,0.155,0.143,0.223,0.216,0.227,0.121,0.078,south-southwest,6.1,Yes
2021/09/08,17:50,0.156,0.142,0.224,0.217,0.224,0.121,0.077,south,5.2,Yes
2021/09/08,18:00,0.155,0.143,0.222,0.215,0.226,0.121,0.078,south-southwest,5.9,Yes
2021/09/08,18:10,0.156,0.143,0.224,0.219,0.226,0.121,0.078,south,6.1,Yes
2021/09/08,18:20,0.156,0.142,0.223,0.216,0.225,0.120,0.078,south,5.8,Yes
2021/09/08,18:30,0.156,0.142,0.223,0.217,0.227,0.121,0.078,south,6.2,Yes
2021/09/08,18:40,0.158,0.143,0.222,0.217,0.224,0.120,0.078,south,6.6,Yes
2021/09/08,18:50,0.154,0.144,0.223,0.217,0.227,0.121,0.078,south,7.0,Yes
2021/09/08,19:00,0.155,0.142,0.222,0.217,0.225,0.121,0.078,south,8.1,Yes
2021/09/08,19:10,0.155,0.143,0.224,0.217,0.227,0.121,0.078,south,8.2,Yes
2021/09/08,19:20,0.156,0.143,0.222,0.217,0.227,0.122,0.079,south,7.5,Yes
2021/09/08,19:30,0.156,0.143,0.223,0.215,0.225,0.121,0.077,south,8.2,No
2021/09/08,19:40,0.156,0.142,0.222,0.218,0.228,0.121,0.077,south,7.1,Yes
2021/09/08,19:50,0.156,0.142,0.222,0.216,0.224,0.121,0.078,south,8.6,Yes
2021/09/08,20:00,0.155,0.143,0.222,0.217,0.226,0.119,0.077,south,8.6,No
2021/09/08,20:10,0.156,0.143,0.222,0.216,0.224,0.120,0.078,south,8.4,No
2021/09/08,20:20,0.154,0.142,0.223,0.216,0.224,0.120,0.077,south,8.7,No
2021/09/08,20:30,0.154,0.141,0.220,0.216,0.226,0.120,0.077,south-southwest,9.8,No
2021/09/08,20:40,0.155,0.142,0.223,0.215,0.224,0.120,0.077,south-southwest,9.5,No
2021/09/08,20:50,0.155,0.141,0.221,0.216,0.226,0.120,0.076,south-southwest,9.6,No
2021/09/08,21:00,0.155,0.143,0.221,0.215,0.223,0.121,0.077,south-southwest,10.1,No
2021/09/08,21:10,0.154,0.140,0.222,0.217,0.224,0.119,0.077,south-southwest,10.1,No
2021/09/08,21:20,0.153,0.141,0.221,0.215,0.225,0.120,0.077,south-southwest,10.3,No
2021/09/08,21:30,0.155,0.141,0.223,0.215,0.223,0.120,0.077,south-southwest,9.6,No
2021/09/08,21:40,0.153,0.141,0.220,0.217,0.226,0.119,0.076,south-southwest,10.4,No
2021/09/08,21:50,0.155,0.141,0.222,0.215,0.222,0.121,0.077,south-southwest,10.1,No
2021/09/08,22:00,0.153,0.141,0.221,0.218,0.225,0.120,0.076,south-southwest,9.3,No
2021/09/08,22:10,0.154,0.142,0.222,0.215,0.224,0.120,0.077,south-southwest,8.4,No
2021/09/08,22:20,0.154,0.140,0.222,0.217,0.224,0.120,0.076,south,8.3,No
2021/09/08,22:30,0.154,0.142,0.223,0.215,0.224,0.120,0.077,south-southwest,8.8,No
2021/09/08,22:40,0.155,0.140,0.222,0.215,0.224,0.121,0.077,south-southwest,8.5,No
2021/09/08,22:50,0.154,0.141,0.222,0.216,0.225,0.119,0.077,south-southwest,8.8,No
2021/09/08,23:00,0.155,0.140,0.222,0.215,0.223,0.120,0.077,south-southwest,8.1,No
2021/09/08,23:10,0.154,0.141,0.221,0.217,0.226,0.121,0.076,south-southwest,8.1,No
2021/09/08,23:20,0.155,0.141,0.222,0.215,0.224,0.119,0.076,south,7.1,No
2021/09/08,23:30,0.155,0.141,0.221,0.217,0.222,0.120,0.076,south,6.7,No
2021/09/08,23:40,0.154,0.142,0.223,0.216,0.225,0.120,0.077,south,5.4,No
2021/09/08,23:50,0.155,0.140,0.222,0.215,0.223,0.120,0.077,south,5.0,No
